Madison, WI

2:23 AM CST on November 18, 2019 (GMT -0600)
Dane County Regional-Truax

Weather History for KMSN - July, 2019

Change the Weather History Date:

Saturday, July 20, 2019

  Actual Average Record
Temperature  
Mean Temperature 79 °F 71 °F  
Max Temperature 90 °F 82 °F 97 °F (1930)
Min Temperature 68 °F 61 °F 45 °F (1970)
Degree Days  
Heating Degree Days 0 0  
Month to date heating degree days 0 0  
Since 1 June heating degree days 42 60  
Since 1 July heating degree days 0 0  
Cooling Degree Days 14 7  
Month to date cooling degree days 232 138  
Year to date cooling degree days 350 288  
Since 1 June cooling degree days 330 258  
Growing Degree Days 30 (Base 50)    
Moisture  
Dew Point 72 °F    
Average Humidity 79    
Maximum Humidity 90    
Minimum Humidity 68    
Precipitation  
Precipitation 0.19 in 0.13 in 2.53 in (1912)
Month to date precipitation 5.56 2.77  
Year to date precipitation 26.53 19.14  
Snow  
Snow 0.00 in 0.00 in 0.00 in (2018)
Month to date snowfall 0.0 0.0  
Since 1 June snowfall 0.0 0.0  
Since 1 July snowfall 0.0 0.0  
Snow Depth 0.00 in    
Sea Level Pressure  
Sea Level Pressure 29.83 in    
Wind  
Wind Speed 9 mph (East)    
Max Wind Speed 28 mph    
Max Gust Speed 48 mph    
Visibility 9 miles    
Events Rain , Thunderstorm    
T = Trace of Precipitation, MM = Missing Value Source: NWS Daily Summary

Daily Weather History Graph

Daily Weather History Graph

Search for Another Location

Airport or City:

Astronomy

Jul. 20, 2019 Rise Set
Actual Time 5:35 AM CDT 8:31 PM CDT
Civil Twilight 5:01 AM CDT 9:04 PM CDT
Nautical Twilight 4:19 AM CDT 9:47 PM CDT
Astronomical Twilight 3:28 AM CDT 10:37 PM CDT
Moon 10:53 PM CDT (7/20) 9:03 AM CDT (7/20)
Length of Visible Light 16h 02m
Length of Day
14h 55m
Waning Gibbous, 87% of the Moon is Illuminated
Jul 20
Waning Gibbous
Jul 24
Last Quarter
Jul 31
New
Aug 7
First Quarter
Aug 15
Full

Hourly Weather History & Observations

Time (CDT) Temp. Heat Index Dew Point Humidity Pressure Visibility Wind Dir Wind Speed Gust Speed Precip Events Conditions
12:53 AM 84.9 °F 96.6 °F 78.1 °F 80% 29.80 in 10.0 mi South 10.4 mph - N/A   Overcast
1:32 AM 80.1 °F 83.8 °F 72.0 °F 76% 29.83 in 10.0 mi East 8.1 mph - N/A   Overcast
1:53 AM 79.0 °F - 72.0 °F 79% 29.80 in 10.0 mi Variable 4.6 mph - N/A   Overcast
2:53 AM 80.1 °F 83.8 °F 72.0 °F 76% 29.79 in 10.0 mi ESE 5.8 mph - N/A   Overcast
3:53 AM 79.0 °F - 73.0 °F 82% 29.80 in 10.0 mi SE 6.9 mph - N/A   Overcast
4:25 AM 80.1 °F 84.2 °F 73.0 °F 79% 29.82 in 10.0 mi SSE 9.2 mph - N/A   Scattered Clouds
4:53 AM 80.1 °F 84.5 °F 73.9 °F 81% 29.79 in 10.0 mi South 8.1 mph - N/A   Scattered Clouds
5:53 AM 82.0 °F 89.4 °F 75.9 °F 82% 29.79 in 10.0 mi South 11.5 mph - N/A   Overcast
6:39 AM 80.1 °F 85.4 °F 75.9 °F 87% 29.81 in 10.0 mi South 11.5 mph - N/A   Overcast
6:53 AM 81.0 °F 87.3 °F 75.9 °F 85% 29.78 in 10.0 mi South 12.7 mph - N/A   Overcast
7:53 AM 82.0 °F 90.2 °F 77.0 °F 85% 29.76 in 10.0 mi South 13.8 mph - N/A   Mostly Cloudy
8:45 AM 84.0 °F 93.7 °F 77.0 °F 79% 29.80 in 10.0 mi SSW 10.4 mph - N/A   Mostly Cloudy
8:53 AM 84.0 °F 93.7 °F 77.0 °F 79% 29.78 in 10.0 mi SSW 10.4 mph - N/A   Mostly Cloudy
9:10 AM 84.9 °F 95.3 °F 77.0 °F 77% 29.80 in 10.0 mi SW 10.4 mph - N/A   Mostly Cloudy
9:53 AM 86.0 °F 96.9 °F 77.0 °F 74% 29.75 in 10.0 mi WSW 9.2 mph - N/A   Scattered Clouds
10:53 AM 89.1 °F 101.4 °F 77.0 °F 67% 29.75 in 10.0 mi SW 10.4 mph - N/A   Mostly Cloudy
11:41 AM 89.1 °F 101.4 °F 77.0 °F 67% 29.80 in 10.0 mi WSW 8.1 mph - N/A   Mostly Cloudy
11:53 AM 88.0 °F 100.2 °F 77.0 °F 70% 29.78 in 10.0 mi Variable 6.9 mph 18.4 mph N/A   Overcast
12:53 PM 86.0 °F 95.1 °F 75.0 °F 70% 29.81 in 10.0 mi North 18.4 mph 28.8 mph N/A   Overcast
1:53 PM 77.0 °F - 68.0 °F 74% 29.86 in 10.0 mi NNE 12.7 mph - N/A   Overcast
2:41 PM 75.0 °F - 68.0 °F 79% 29.94 in 2.0 mi NNW 26.5 mph 48.3 mph 0.00 in Rain , Thunderstorm Light Rain
2:44 PM 73.9 °F - 66.9 °F 79% 29.94 in 1.8 mi NNW 27.6 mph 48.3 mph 0.02 in Rain , Thunderstorm Thunderstorms and Rain
2:53 PM 71.1 °F - 66.9 °F 87% 29.94 in 1.2 mi NNE 18.4 mph 42.6 mph 0.16 in Rain , Thunderstorm Heavy Thunderstorms and Rain
3:02 PM 72.0 °F - 68.0 °F 87% 29.91 in 5.0 mi NE 13.8 mph 25.3 mph 0.02 in Rain , Thunderstorm Thunderstorms and Rain
3:34 PM 71.1 °F - 66.9 °F 87% 29.89 in 10.0 mi ENE 8.1 mph - 0.03 in   Overcast
3:53 PM 71.1 °F - 66.0 °F 84% 29.86 in 10.0 mi East 9.2 mph - 0.03 in   Overcast
4:53 PM 71.1 °F - 66.0 °F 84% 29.84 in 10.0 mi South 11.5 mph - N/A   Mostly Cloudy
5:53 PM 73.0 °F - 66.0 °F 79% 29.83 in 10.0 mi ENE 4.6 mph - N/A   Mostly Cloudy
6:53 PM 73.0 °F - 68.0 °F 84% 29.84 in 10.0 mi NNW 5.8 mph - N/A   Mostly Cloudy
7:53 PM 72.0 °F - 68.0 °F 87% 29.84 in 10.0 mi North 4.6 mph - N/A   Mostly Cloudy
8:53 PM 71.1 °F - 66.9 °F 87% 29.87 in 10.0 mi North 5.8 mph - N/A   Mostly Cloudy
9:53 PM 70.0 °F - 66.9 °F 90% 29.89 in 10.0 mi North 8.1 mph - N/A   Mostly Cloudy
10:03 PM 70.0 °F - 66.9 °F 90% 29.91 in 10.0 mi North 5.8 mph - N/A   Mostly Cloudy
10:53 PM 70.0 °F - 66.9 °F 90% 29.89 in 10.0 mi North 8.1 mph - N/A   Overcast
11:05 PM 70.0 °F - 66.9 °F 90% 29.91 in 10.0 mi NNE 8.1 mph - N/A   Overcast
11:53 PM 69.1 °F - 66.0 °F 90% 29.91 in 10.0 mi North 5.8 mph - N/A   Overcast